Location: Recife
(8.0585°S, 34.8848°W)
Time: 06:32:40
(UTC-03:00)

Vanguard 3 - Pass Details

Date: 18 April 2026
Orbit: 507 x 3205 km, 33.4° (Epoch: 13 May)

Event Time Altitude Azimuth Distance (km) Brightness Sun altitude
Rises 15:21:49 0° 233° (SW) 7,151 12.4 26.6°
Reaches altitude 10° 15:26:58 10° 229° (SW) 6,039 12.1 25.4°
Maximum altitude 15:45:05 63° 151° (SSE) 2,619 9.8 21.1°
Drops below altitude 10° 15:56:16 10° 72° (ENE) 3,939 10.2 18.4°
Sets 15:58:52 0° 68° (ENE) 4,626 10.5 17.8°
